Location: DARK SKY Beskydy - Park tmavé oblohy, www.darkskybeskydy.cz
(49.4926°N, 18.5016°E)
Time: 03:36:59
(UTC+02:00)

A-11 Canister half - Pass Details

Date: 01 March 2024
Orbit: 1513 x 1686 km, 47.2° (Epoch: 24 April)

Event Time Altitude Azimuth Distance (km) Brightness Sun altitude
Rises 07:49:37 0° 289° (WNW) 4,890 11.0 11.7°
Reaches altitude 10° 07:53:51 10° 274° (W) 3,872 10.6 12.3°
Maximum altitude 08:00:22 20° 232° (SW) 3,076 10.5 13.3°
Drops below altitude 10° 08:06:46 10° 189° (S) 3,767 11.4 14.2°
Sets 08:10:50 0° 174° (S) 4,718 12.1 14.8°
